FENGYUN 1C DEB

Satellite information

Favourite Embed

Satellite Type and Status

DEBRISIN ORBIT

Key statistics

Satellite FENGYUN 1C DEB at a glance.

Uptime

9555

Days in orbit

Revolutions

≈ 14.1

Per day

Orbit

SSO

Sun Synchronous Orbit

Inclination

97.6

Latest

Satellite identification and parameters

Extended collection of information and parameters for FENGYUN 1C DEB.

Object identification

Identified? True

Debris? True

Object name: FENGYUN 1C DEB

International designator: 1999-025BCS

Object number (NORAD): 31000

Object ID (CCSDS): 31000

Country: PEOPLES REPUBLIC OF CHINA (PRC)

Current information (Y/N): Y

RCS size: SMALL

Orbital parameters

Period: 102.185 minutes

Inclination: 97.5837 deg

SMA: 7240.218 km

Apoapsis: 982.407 km

Periapsis: 741.76 km

RAAN: 241.3345 deg

Eccentricy: 0.0166188

Argument of periapsis: 170.1242 deg

Mean anomaly: 342.9622 deg

Mean motion: 14.09208542 rev/day

Mean motion (dot): 0.00000906 rev/day2

B* drag term: 0.00047547 1/REarth

Two-line elements (TLE)

Creation date: July 6, 2025, 10:46 p.m.

Reference frame: TEME

Reference center: EARTH

Epoch: July 6, 2025, 2:57 p.m. UTC

TLE line 0: 0 FENGYUN 1C DEB

TLE line 1: 1 31000U 99025BCS 25187.62358196 .00000906 00000-0 47547-3 0 9997

TLE line 2: 2 31000 97.5837 241.3345 0166188 170.1242 342.9622 14.09208542937938

Live tracking on map

Real-time ground track for satellite FENGYUN 1C DEB.

In-orbit conjunctions

A list of the most updated potential collisions computed for object FENGYUN 1C DEB.

Target Orbit TCA Probability of collision Miss distance Type
CZ-6A DEB LEO 2024-12-25 07:07:08 0.0001101914 411.0 (m) DEBRIS

Associated space launch

Chinese polar orbiting meteorological satellite

FENGYUN 1C DEB was lifted into orbit during the mission ‘Long March 4B | Feng Yun 1C’, on board a Long March 4B space rocket.

The launch took place on May 10, 1999, 1:33 a.m. from Launch Complex 7.

For more information about the launch, click the button.

Launch to space Long March 4B | Feng Yun 1C
Long March 4B | Feng Yun 1C

Agency: N/A

Status: Launch Successful

Launch date: May 10, 1999, 1:33 a.m. UTC

Rocket: Long March 4B

Launch pad: Launch Complex 7

Location: Taiyuan Satellite Launch Center, People's Republic of China

...

Latest news about this satellite

There are no fresh news available about this satellite. Check back as we update our databases every day.


Newsletter sign-up

Weekly statistics, charts and insights to help you stay on top of the space industry.